owner,sensor,date,latitude,longitude,sea_surface_height_above_sea_level,qcFlag 
COMPS,ioos:station:USF.COMPS:ARP:1,2013-08-01T00:00:00Z,28.4330,-82.6670,-0.005,1111122 
COMPS,ioos:station:USF.COMPS:ARP:1,2013-08-01T00:06:00Z,28.4330,-82.6670,0.008,1111122 
COMPS,ioos:station:USF.COMPS:ARP:1,2013-08-01T00:12:00Z,28.4330,-82.6670,0.021,1111122 
COMPS,ioos:station:USF.COMPS:ARP:1,2013-08-01T00:18:00Z,28.4330,-82.6670,0.034,1111122 
COMPS,ioos:station:USF.COMPS:ARP:1,2013-08-01T00:24:00Z,28.4330,-82.6670,0.046,1111122 
COMPS,ioos:station:USF.COMPS:ARP:1,2013-08-01T00:30:00Z,28.4330,-82.6670,0.06,1111122 
COMPS,ioos:station:USF.COMPS:ARP:1,2013-08-01T00:36:00Z,28.4330,-82.6670,0.073,1111122 
COMPS,ioos:station:USF.COMPS:ARP:1,2013-08-01T00:42:00Z,28.4330,-82.6670,0.084,1111122 
COMPS,ioos:station:USF.COMPS:ARP:1,2013-08-01T00:48:00Z,28.4330,-82.6670,0.092,1111122 
COMPS,ioos:station:USF.COMPS:ARP:1,2013-08-01T00:54:00Z,28.4330,-82.6670,0.1,1111122 
COMPS,ioos:station:USF.COMPS:ARP:1,2013-08-01T01:00:00Z,28.4330,-82.6670,0.099,1111122 
COMPS,ioos:station:USF.COMPS:ARP:1,2013-08-01T01:06:00Z,28.4330,-82.6670,0.096,1111122 
COMPS,ioos:station:USF.COMPS:ARP:1,2013-08-01T01:12:00Z,28.4330,-82.6670,0.097,1111122 
COMPS,ioos:station:USF.COMPS:ARP:1,2013-08-01T01:18:00Z,28.4330,-82.6670,0.096,1111122 
COMPS,ioos:station:USF.COMPS:ARP:1,2013-08-01T01:24:00Z,28.4330,-82.6670,0.084,1111122 
COMPS,ioos:station:USF.COMPS:ARP:1,2013-08-01T01:30:00Z,28.4330,-82.6670,0.089,1111122 
COMPS,ioos:station:USF.COMPS:ARP:1,2013-08-01T01:36:00Z,28.4330,-82.6670,0.091,1111122 
COMPS,ioos:station:USF.COMPS:ARP:1,2013-08-01T01:42:00Z,28.4330,-82.6670,0.082,1111122 
COMPS,ioos:station:USF.COMPS:ARP:1,2013-08-01T01:48:00Z,28.4330,-82.6670,0.089,1111122 
COMPS,ioos:station:USF.COMPS:ARP:1,2013-08-01T01:54:00Z,28.4330,-82.6670,0.091,1111122 
COMPS,ioos:station:USF.COMPS:ARP:1,2013-08-01T02:00:00Z,28.4330,-82.6670,0.092,1111122 
COMPS,ioos:station:USF.COMPS:ARP:1,2013-08-01T02:06:00Z,28.4330,-82.6670,0.087,1111122 
COMPS,ioos:station:USF.COMPS:ARP:1,2013-08-01T02:12:00Z,28.4330,-82.6670,0.087,1111122 
COMPS,ioos:station:USF.COMPS:ARP:1,2013-08-01T02:18:00Z,28.4330,-82.6670,0.095,1111122 
COMPS,ioos:station:USF.COMPS:ARP:1,2013-08-01T02:24:00Z,28.4330,-82.6670,0.096,1111122 
COMPS,ioos:station:USF.COMPS:ARP:1,2013-08-01T02:30:00Z,28.4330,-82.6670,0.106,1111122 
COMPS,ioos:station:USF.COMPS:ARP:1,2013-08-01T02:36:00Z,28.4330,-82.6670,0.112,1111122 
COMPS,ioos:station:USF.COMPS:ARP:1,2013-08-01T02:42:00Z,28.4330,-82.6670,0.111,1111122 
COMPS,ioos:station:USF.COMPS:ARP:1,2013-08-01T02:48:00Z,28.4330,-82.6670,0.111,1111122 
COMPS,ioos:station:USF.COMPS:ARP:1,2013-08-01T02:54:00Z,28.4330,-82.6670,0.115,1111122 
COMPS,ioos:station:USF.COMPS:ARP:1,2013-08-01T03:00:00Z,28.4330,-82.6670,0.115,1111122 
COMPS,ioos:station:USF.COMPS:ARP:1,2013-08-01T03:06:00Z,28.4330,-82.6670,0.101,1111122 
COMPS,ioos:station:USF.COMPS:ARP:1,2013-08-01T03:12:00Z,28.4330,-82.6670,0.092,1111122 
COMPS,ioos:station:USF.COMPS:ARP:1,2013-08-01T03:18:00Z,28.4330,-82.6670,0.085,1111122 
COMPS,ioos:station:USF.COMPS:ARP:1,2013-08-01T03:24:00Z,28.4330,-82.6670,0.069,1111122 
COMPS,ioos:station:USF.COMPS:ARP:1,2013-08-01T03:30:00Z,28.4330,-82.6670,0.053,1111122 
COMPS,ioos:station:USF.COMPS:ARP:1,2013-08-01T03:36:00Z,28.4330,-82.6670,0.044,1111122 
COMPS,ioos:station:USF.COMPS:ARP:1,2013-08-01T03:42:00Z,28.4330,-82.6670,0.028,1111122 
COMPS,ioos:station:USF.COMPS:ARP:1,2013-08-01T03:48:00Z,28.4330,-82.6670,0.015,1111122 
COMPS,ioos:station:USF.COMPS:ARP:1,2013-08-01T03:54:00Z,28.4330,-82.6670,0.017,1111122 
COMPS,ioos:station:USF.COMPS:ARP:1,2013-08-01T04:00:00Z,28.4330,-82.6670,0.013,1111122 
COMPS,ioos:station:USF.COMPS:ARP:1,2013-08-01T04:06:00Z,28.4330,-82.6670,0.011,1111122 
COMPS,ioos:station:USF.COMPS:ARP:1,2013-08-01T04:12:00Z,28.4330,-82.6670,0.011,1111122 
COMPS,ioos:station:USF.COMPS:ARP:1,2013-08-01T04:18:00Z,28.4330,-82.6670,0.011,1111122 
COMPS,ioos:station:USF.COMPS:ARP:1,2013-08-01T04:24:00Z,28.4330,-82.6670,0.011,1111122 
COMPS,ioos:station:USF.COMPS:ARP:1,2013-08-01T04:30:00Z,28.4330,-82.6670,0.005,1111122 
COMPS,ioos:station:USF.COMPS:ARP:1,2013-08-01T04:36:00Z,28.4330,-82.6670,0.006,1111122 
COMPS,ioos:station:USF.COMPS:ARP:1,2013-08-01T04:42:00Z,28.4330,-82.6670,-0.005,1111122 
COMPS,ioos:station:USF.COMPS:ARP:1,2013-08-01T04:48:00Z,28.4330,-82.6670,-0.013,1111122 
COMPS,ioos:station:USF.COMPS:ARP:1,2013-08-01T04:54:00Z,28.4330,-82.6670,-0.027,1111122 
COMPS,ioos:station:USF.COMPS:ARP:1,2013-08-01T05:00:00Z,28.4330,-82.6670,-0.037,1111122 
COMPS,ioos:station:USF.COMPS:ARP:1,2013-08-01T05:06:00Z,28.4330,-82.6670,-0.053,1111122 
COMPS,ioos:station:USF.COMPS:ARP:1,2013-08-01T05:12:00Z,28.4330,-82.6670,-0.065,1111122 
COMPS,ioos:station:USF.COMPS:ARP:1,2013-08-01T05:18:00Z,28.4330,-82.6670,-0.075,1111122 
COMPS,ioos:station:USF.COMPS:ARP:1,2013-08-01T05:24:00Z,28.4330,-82.6670,-0.088,1111122 
COMPS,ioos:station:USF.COMPS:ARP:1,2013-08-01T05:30:00Z,28.4330,-82.6670,-0.097,1111122 
COMPS,ioos:station:USF.COMPS:ARP:1,2013-08-01T05:36:00Z,28.4330,-82.6670,-0.107,1111122 
COMPS,ioos:station:USF.COMPS:ARP:1,2013-08-01T05:42:00Z,28.4330,-82.6670,-0.116,1111122 
COMPS,ioos:station:USF.COMPS:ARP:1,2013-08-01T05:48:00Z,28.4330,-82.6670,-0.124,1111122 
COMPS,ioos:station:USF.COMPS:ARP:1,2013-08-01T05:54:00Z,28.4330,-82.6670,-0.135,1111122 
COMPS,ioos:station:USF.COMPS:ARP:1,2013-08-01T06:00:00Z,28.4330,-82.6670,-0.143,1111122 
COMPS,ioos:station:USF.COMPS:ARP:1,2013-08-01T06:06:00Z,28.4330,-82.6670,-0.152,1111122 
COMPS,ioos:station:USF.COMPS:ARP:1,2013-08-01T06:12:00Z,28.4330,-82.6670,-0.16,1111122 
COMPS,ioos:station:USF.COMPS:ARP:1,2013-08-01T06:18:00Z,28.4330,-82.6670,-0.168,1111122 
COMPS,ioos:station:USF.COMPS:ARP:1,2013-08-01T06:24:00Z,28.4330,-82.6670,-0.174,1111122 
COMPS,ioos:station:USF.COMPS:ARP:1,2013-08-01T06:30:00Z,28.4330,-82.6670,-0.179,1111122 
COMPS,ioos:station:USF.COMPS:ARP:1,2013-08-01T06:36:00Z,28.4330,-82.6670,-0.183,1111122 
COMPS,ioos:station:USF.COMPS:ARP:1,2013-08-01T06:42:00Z,28.4330,-82.6670,-0.19,1111122 
COMPS,ioos:station:USF.COMPS:ARP:1,2013-08-01T06:48:00Z,28.4330,-82.6670,-0.192,1111122 
COMPS,ioos:station:USF.COMPS:ARP:1,2013-08-01T06:54:00Z,28.4330,-82.6670,-0.198,1111122 
COMPS,ioos:station:USF.COMPS:ARP:1,2013-08-01T07:00:00Z,28.4330,-82.6670,-0.204,1111122 
COMPS,ioos:station:USF.COMPS:ARP:1,2013-08-01T07:06:00Z,28.4330,-82.6670,-0.207,1111122 
COMPS,ioos:station:USF.COMPS:ARP:1,2013-08-01T07:12:00Z,28.4330,-82.6670,-0.213,1111122 
COMPS,ioos:station:USF.COMPS:ARP:1,2013-08-01T07:18:00Z,28.4330,-82.6670,-0.216,1111122 
COMPS,ioos:station:USF.COMPS:ARP:1,2013-08-01T07:24:00Z,28.4330,-82.6670,-0.215,1111122 
COMPS,ioos:station:USF.COMPS:ARP:1,2013-08-01T07:30:00Z,28.4330,-82.6670,-0.213,1111122 
COMPS,ioos:station:USF.COMPS:ARP:1,2013-08-01T07:36:00Z,28.4330,-82.6670,-0.206,1111122 
COMPS,ioos:station:USF.COMPS:ARP:1,2013-08-01T07:42:00Z,28.4330,-82.6670,-0.202,1111122 
COMPS,ioos:station:USF.COMPS:ARP:1,2013-08-01T07:48:00Z,28.4330,-82.6670,-0.192,1111122 
COMPS,ioos:station:USF.COMPS:ARP:1,2013-08-01T07:54:00Z,28.4330,-82.6670,-0.184,1111122 
COMPS,ioos:station:USF.COMPS:ARP:1,2013-08-01T08:00:00Z,28.4330,-82.6670,-0.177,1111122 
COMPS,ioos:station:USF.COMPS:ARP:1,2013-08-01T08:06:00Z,28.4330,-82.6670,-0.167,1111122 
COMPS,ioos:station:USF.COMPS:ARP:1,2013-08-01T08:12:00Z,28.4330,-82.6670,-0.158,1111122 
COMPS,ioos:station:USF.COMPS:ARP:1,2013-08-01T08:18:00Z,28.4330,-82.6670,-0.148,1111122 
COMPS,ioos:station:USF.COMPS:ARP:1,2013-08-01T08:24:00Z,28.4330,-82.6670,-0.135,1111122 
COMPS,ioos:station:USF.COMPS:ARP:1,2013-08-01T08:30:00Z,28.4330,-82.6670,-0.125,1111122 
COMPS,ioos:station:USF.COMPS:ARP:1,2013-08-01T08:36:00Z,28.4330,-82.6670,-0.113,1111122 
COMPS,ioos:station:USF.COMPS:ARP:1,2013-08-01T08:42:00Z,28.4330,-82.6670,-0.101,1111122 
COMPS,ioos:station:USF.COMPS:ARP:1,2013-08-01T08:48:00Z,28.4330,-82.6670,-0.089,1111122 
COMPS,ioos:station:USF.COMPS:ARP:1,2013-08-01T08:54:00Z,28.4330,-82.6670,-0.076,1111122 
COMPS,ioos:station:USF.COMPS:ARP:1,2013-08-01T09:00:00Z,28.4330,-82.6670,-0.063,1111122 
COMPS,ioos:station:USF.COMPS:ARP:1,2013-08-01T09:06:00Z,28.4330,-82.6670,-0.05,1111122 
COMPS,ioos:station:USF.COMPS:ARP:1,2013-08-01T09:12:00Z,28.4330,-82.6670,-0.04,1111122 
COMPS,ioos:station:USF.COMPS:ARP:1,2013-08-01T09:18:00Z,28.4330,-82.6670,-0.027,1111122 
COMPS,ioos:station:USF.COMPS:ARP:1,2013-08-01T09:24:00Z,28.4330,-82.6670,-0.016,1111122 
COMPS,ioos:station:USF.COMPS:ARP:1,2013-08-01T09:30:00Z,28.4330,-82.6670,-0.004,1111122 
COMPS,ioos:station:USF.COMPS:ARP:1,2013-08-01T09:36:00Z,28.4330,-82.6670,0.009,1111122 
COMPS,ioos:station:USF.COMPS:ARP:1,2013-08-01T09:42:00Z,28.4330,-82.6670,0.021,1111122 
COMPS,ioos:station:USF.COMPS:ARP:1,2013-08-01T09:48:00Z,28.4330,-82.6670,0.036,1111122 
COMPS,ioos:station:USF.COMPS:ARP:1,2013-08-01T09:54:00Z,28.4330,-82.6670,0.052,1111122 
COMPS,ioos:station:USF.COMPS:ARP:1,2013-08-01T10:00:00Z,28.4330,-82.6670,0.068,1111122 
COMPS,ioos:station:USF.COMPS:ARP:1,2013-08-01T10:06:00Z,28.4330,-82.6670,0.082,1111122 
COMPS,ioos:station:USF.COMPS:ARP:1,2013-08-01T10:12:00Z,28.4330,-82.6670,0.098,1111122 
COMPS,ioos:station:USF.COMPS:ARP:1,2013-08-01T10:18:00Z,28.4330,-82.6670,0.112,1111122 
COMPS,ioos:station:USF.COMPS:ARP:1,2013-08-01T10:24:00Z,28.4330,-82.6670,0.127,1111122 
COMPS,ioos:station:USF.COMPS:ARP:1,2013-08-01T10:30:00Z,28.4330,-82.6670,0.142,1111122 
COMPS,ioos:station:USF.COMPS:ARP:1,2013-08-01T10:36:00Z,28.4330,-82.6670,0.157,1111122 
COMPS,ioos:station:USF.COMPS:ARP:1,2013-08-01T10:42:00Z,28.4330,-82.6670,0.172,1111122 
COMPS,ioos:station:USF.COMPS:ARP:1,2013-08-01T10:48:00Z,28.4330,-82.6670,0.182,1111122 
COMPS,ioos:station:USF.COMPS:ARP:1,2013-08-01T10:54:00Z,28.4330,-82.6670,0.194,1111122 
COMPS,ioos:station:USF.COMPS:ARP:1,2013-08-01T11:00:00Z,28.4330,-82.6670,0.209,1111122 
COMPS,ioos:station:USF.COMPS:ARP:1,2013-08-01T11:06:00Z,28.4330,-82.6670,0.223,1111122 
COMPS,ioos:station:USF.COMPS:ARP:1,2013-08-01T11:12:00Z,28.4330,-82.6670,0.237,1111122 
COMPS,ioos:station:USF.COMPS:ARP:1,2013-08-01T11:18:00Z,28.4330,-82.6670,0.251,1111122 
COMPS,ioos:station:USF.COMPS:ARP:1,2013-08-01T11:24:00Z,28.4330,-82.6670,0.264,1111122 
COMPS,ioos:station:USF.COMPS:ARP:1,2013-08-01T11:30:00Z,28.4330,-82.6670,0.276,1111122 
COMPS,ioos:station:USF.COMPS:ARP:1,2013-08-01T11:36:00Z,28.4330,-82.6670,0.286,1111122 
COMPS,ioos:station:USF.COMPS:ARP:1,2013-08-01T11:42:00Z,28.4330,-82.6670,0.295,1111122 
COMPS,ioos:station:USF.COMPS:ARP:1,2013-08-01T11:48:00Z,28.4330,-82.6670,0.308,1111122 
COMPS,ioos:station:USF.COMPS:ARP:1,2013-08-01T11:54:00Z,28.4330,-82.6670,0.318,1111122 
COMPS,ioos:station:USF.COMPS:ARP:1,2013-08-01T12:00:00Z,28.4330,-82.6670,0.327,1111122 
COMPS,ioos:station:USF.COMPS:ARP:1,2013-08-01T12:06:00Z,28.4330,-82.6670,0.339,1111122 
COMPS,ioos:station:USF.COMPS:ARP:1,2013-08-01T12:12:00Z,28.4330,-82.6670,0.353,1111122 
COMPS,ioos:station:USF.COMPS:ARP:1,2013-08-01T12:18:00Z,28.4330,-82.6670,0.361,1111122 
COMPS,ioos:station:USF.COMPS:ARP:1,2013-08-01T12:24:00Z,28.4330,-82.6670,0.369,1111122 
COMPS,ioos:station:USF.COMPS:ARP:1,2013-08-01T12:30:00Z,28.4330,-82.6670,0.377,1111122 
COMPS,ioos:station:USF.COMPS:ARP:1,2013-08-01T12:36:00Z,28.4330,-82.6670,0.378,1111122 
COMPS,ioos:station:USF.COMPS:ARP:1,2013-08-01T12:42:00Z,28.4330,-82.6670,0.383,1111122 
COMPS,ioos:station:USF.COMPS:ARP:1,2013-08-01T12:48:00Z,28.4330,-82.6670,0.385,1111122 
COMPS,ioos:station:USF.COMPS:ARP:1,2013-08-01T12:54:00Z,28.4330,-82.6670,0.384,1111122 
COMPS,ioos:station:USF.COMPS:ARP:1,2013-08-01T13:00:00Z,28.4330,-82.6670,0.389,1111122 
COMPS,ioos:station:USF.COMPS:ARP:1,2013-08-01T13:06:00Z,28.4330,-82.6670,0.392,1111122 
COMPS,ioos:station:USF.COMPS:ARP:1,2013-08-01T13:12:00Z,28.4330,-82.6670,0.394,1111122 
COMPS,ioos:station:USF.COMPS:ARP:1,2013-08-01T13:18:00Z,28.4330,-82.6670,0.396,1111122 
COMPS,ioos:station:USF.COMPS:ARP:1,2013-08-01T13:24:00Z,28.4330,-82.6670,0.396,1111122 
COMPS,ioos:station:USF.COMPS:ARP:1,2013-08-01T13:42:00Z,28.4330,-82.6670,0.395,1111122 
COMPS,ioos:station:USF.COMPS:ARP:1,2013-08-01T13:48:00Z,28.4330,-82.6670,0.397,1111122 
COMPS,ioos:station:USF.COMPS:ARP:1,2013-08-01T13:54:00Z,28.4330,-82.6670,0.399,1111122 
COMPS,ioos:station:USF.COMPS:ARP:1,2013-08-01T14:00:00Z,28.4330,-82.6670,0.4,1111122 
COMPS,ioos:station:USF.COMPS:ARP:1,2013-08-01T14:06:00Z,28.4330,-82.6670,0.396,1111122 
COMPS,ioos:station:USF.COMPS:ARP:1,2013-08-01T14:12:00Z,28.4330,-82.6670,0.4,1111122 
COMPS,ioos:station:USF.COMPS:ARP:1,2013-08-01T14:18:00Z,28.4330,-82.6670,0.391,1111122 
COMPS,ioos:station:USF.COMPS:ARP:1,2013-08-01T14:24:00Z,28.4330,-82.6670,0.39,1111122 
COMPS,ioos:station:USF.COMPS:ARP:1,2013-08-01T14:30:00Z,28.4330,-82.6670,0.382,1111122 
COMPS,ioos:station:USF.COMPS:ARP:1,2013-08-01T14:36:00Z,28.4330,-82.6670,0.367,1111122 
COMPS,ioos:station:USF.COMPS:ARP:1,2013-08-01T14:42:00Z,28.4330,-82.6670,0.354,1111122 
COMPS,ioos:station:USF.COMPS:ARP:1,2013-08-01T14:48:00Z,28.4330,-82.6670,0.347,1111122 
COMPS,ioos:station:USF.COMPS:ARP:1,2013-08-01T14:54:00Z,28.4330,-82.6670,0.33,1111122 
COMPS,ioos:station:USF.COMPS:ARP:1,2013-08-01T15:00:00Z,28.4330,-82.6670,0.318,1111122 
COMPS,ioos:station:USF.COMPS:ARP:1,2013-08-01T15:06:00Z,28.4330,-82.6670,0.308,1111122 
COMPS,ioos:station:USF.COMPS:ARP:1,2013-08-01T15:12:00Z,28.4330,-82.6670,0.298,1111122 
COMPS,ioos:station:USF.COMPS:ARP:1,2013-08-01T15:18:00Z,28.4330,-82.6670,0.29,1111122 
COMPS,ioos:station:USF.COMPS:ARP:1,2013-08-01T15:24:00Z,28.4330,-82.6670,0.281,1111122 
COMPS,ioos:station:USF.COMPS:ARP:1,2013-08-01T18:48:00Z,28.4330,-82.6670,-0.164,1111122 
COMPS,ioos:station:USF.COMPS:ARP:1,2013-08-01T18:54:00Z,28.4330,-82.6670,-0.175,1111122 
COMPS,ioos:station:USF.COMPS:ARP:1,2013-08-01T19:06:00Z,28.4330,-82.6670,-0.195,1111122 
COMPS,ioos:station:USF.COMPS:ARP:1,2013-08-01T19:12:00Z,28.4330,-82.6670,-0.205,1111122 
COMPS,ioos:station:USF.COMPS:ARP:1,2013-08-01T19:18:00Z,28.4330,-82.6670,-0.216,1111122 
COMPS,ioos:station:USF.COMPS:ARP:1,2013-08-01T19:24:00Z,28.4330,-82.6670,-0.226,1111122 
COMPS,ioos:station:USF.COMPS:ARP:1,2013-08-01T19:30:00Z,28.4330,-82.6670,-0.238,1111122 
COMPS,ioos:station:USF.COMPS:ARP:1,2013-08-01T19:42:00Z,28.4330,-82.6670,-0.26,1111122 
COMPS,ioos:station:USF.COMPS:ARP:1,2013-08-01T20:00:00Z,28.4330,-82.6670,-0.291,1111122 
COMPS,ioos:station:USF.COMPS:ARP:1,2013-08-01T20:12:00Z,28.4330,-82.6670,-0.31,1111122 
COMPS,ioos:station:USF.COMPS:ARP:1,2013-08-01T20:24:00Z,28.4330,-82.6670,-0.327,1111122 
COMPS,ioos:station:USF.COMPS:ARP:1,2013-08-01T20:30:00Z,28.4330,-82.6670,-0.334,1111122 
COMPS,ioos:station:USF.COMPS:ARP:1,2013-08-01T21:06:00Z,28.4330,-82.6670,-0.38,1111122 
COMPS,ioos:station:USF.COMPS:ARP:1,2013-08-01T21:24:00Z,28.4330,-82.6670,-0.397,1111122 
COMPS,ioos:station:USF.COMPS:ARP:1,2013-08-01T21:36:00Z,28.4330,-82.6670,-0.408,1111122 
COMPS,ioos:station:USF.COMPS:ARP:1,2013-08-01T22:12:00Z,28.4330,-82.6670,-0.412,1111122 
COMPS,ioos:station:USF.COMPS:ARP:1,2013-08-01T22:42:00Z,28.4330,-82.6670,-0.381,1111122 
COMPS,ioos:station:USF.COMPS:ARP:1,2013-08-01T22:48:00Z,28.4330,-82.6670,-0.374,1111122 
COMPS,ioos:station:USF.COMPS:ARP:1,2013-08-01T22:54:00Z,28.4330,-82.6670,-0.364,1111122 
COMPS,ioos:station:USF.COMPS:ARP:1,2013-08-02T13:00:00Z,28.4330,-82.6670,0.32,1111122 
COMPS,ioos:station:USF.COMPS:ARP:1,2013-08-02T13:48:00Z,28.4330,-82.6670,0.416,1111122 
COMPS,ioos:station:USF.COMPS:ARP:1,2013-08-02T13:54:00Z,28.4330,-82.6670,0.432,1111122 
COMPS,ioos:station:USF.COMPS:ARP:1,2013-08-02T14:00:00Z,28.4330,-82.6670,0.444,1111122 
COMPS,ioos:station:USF.COMPS:ARP:1,2013-08-02T14:06:00Z,28.4330,-82.6670,0.453,1111122 
COMPS,ioos:station:USF.COMPS:ARP:1,2013-08-02T14:12:00Z,28.4330,-82.6670,0.461,1111122 
COMPS,ioos:station:USF.COMPS:ARP:1,2013-08-02T14:18:00Z,28.4330,-82.6670,0.468,1111122 
COMPS,ioos:station:USF.COMPS:ARP:1,2013-08-02T14:24:00Z,28.4330,-82.6670,0.474,1111122 
COMPS,ioos:station:USF.COMPS:ARP:1,2013-08-02T14:30:00Z,28.4330,-82.6670,0.478,1111122 
COMPS,ioos:station:USF.COMPS:ARP:1,2013-08-02T14:42:00Z,28.4330,-82.6670,0.483,1111122 
COMPS,ioos:station:USF.COMPS:ARP:1,2013-08-02T14:48:00Z,28.4330,-82.6670,0.486,1111122 
COMPS,ioos:station:USF.COMPS:ARP:1,2013-08-02T14:54:00Z,28.4330,-82.6670,0.485,1111122 
COMPS,ioos:station:USF.COMPS:ARP:1,2013-08-02T15:00:00Z,28.4330,-82.6670,0.482,1111122 
COMPS,ioos:station:USF.COMPS:ARP:1,2013-08-02T15:06:00Z,28.4330,-82.6670,0.482,1111122 
COMPS,ioos:station:USF.COMPS:ARP:1,2013-08-02T15:12:00Z,28.4330,-82.6670,0.472,1111122 
COMPS,ioos:station:USF.COMPS:ARP:1,2013-08-02T15:48:00Z,28.4330,-82.6670,0.407,1111122 
COMPS,ioos:station:USF.COMPS:ARP:1,2013-08-02T15:54:00Z,28.4330,-82.6670,0.394,1111122 
COMPS,ioos:station:USF.COMPS:ARP:1,2013-08-02T16:00:00Z,28.4330,-82.6670,0.379,1111122 
COMPS,ioos:station:USF.COMPS:ARP:1,2013-08-02T16:06:00Z,28.4330,-82.6670,0.367,1111122 
COMPS,ioos:station:USF.COMPS:ARP:1,2013-08-02T16:12:00Z,28.4330,-82.6670,0.355,1111122 
COMPS,ioos:station:USF.COMPS:ARP:1,2013-08-02T16:18:00Z,28.4330,-82.6670,0.336,1111122 
COMPS,ioos:station:USF.COMPS:ARP:1,2013-08-02T16:24:00Z,28.4330,-82.6670,0.318,1111122 
COMPS,ioos:station:USF.COMPS:ARP:1,2013-08-02T16:30:00Z,28.4330,-82.6670,0.307,1111122 
COMPS,ioos:station:USF.COMPS:ARP:1,2013-08-02T16:36:00Z,28.4330,-82.6670,0.297,1111122 
COMPS,ioos:station:USF.COMPS:ARP:1,2013-08-02T16:42:00Z,28.4330,-82.6670,0.283,1111122 
COMPS,ioos:station:USF.COMPS:ARP:1,2013-08-02T16:54:00Z,28.4330,-82.6670,0.257,1111122 
COMPS,ioos:station:USF.COMPS:ARP:1,2013-08-02T17:00:00Z,28.4330,-82.6670,0.246,1111122 
COMPS,ioos:station:USF.COMPS:ARP:1,2013-08-02T17:06:00Z,28.4330,-82.6670,0.23,1111122 
COMPS,ioos:station:USF.COMPS:ARP:1,2013-08-02T17:12:00Z,28.4330,-82.6670,0.217,1111122 
COMPS,ioos:station:USF.COMPS:ARP:1,2013-08-02T17:18:00Z,28.4330,-82.6670,0.203,1111122 
COMPS,ioos:station:USF.COMPS:ARP:1,2013-08-02T17:24:00Z,28.4330,-82.6670,0.187,1111122 
COMPS,ioos:station:USF.COMPS:ARP:1,2013-08-02T17:36:00Z,28.4330,-82.6670,0.162,1111122 
COMPS,ioos:station:USF.COMPS:ARP:1,2013-08-02T17:42:00Z,28.4330,-82.6670,0.147,1111122 
COMPS,ioos:station:USF.COMPS:ARP:1,2013-08-02T17:48:00Z,28.4330,-82.6670,0.146,1111122 
COMPS,ioos:station:USF.COMPS:ARP:1,2013-08-02T18:30:00Z,28.4330,-82.6670,0.087,1111122 
COMPS,ioos:station:USF.COMPS:ARP:1,2013-08-02T18:42:00Z,28.4330,-82.6670,0.005,1111122 
COMPS,ioos:station:USF.COMPS:ARP:1,2013-08-02T18:48:00Z,28.4330,-82.6670,-0.01,1111122 
COMPS,ioos:station:USF.COMPS:ARP:1,2013-08-02T18:54:00Z,28.4330,-82.6670,-0.025,1111122 
COMPS,ioos:station:USF.COMPS:ARP:1,2013-08-02T19:12:00Z,28.4330,-82.6670,-0.059,1111122 
COMPS,ioos:station:USF.COMPS:ARP:1,2013-08-02T19:24:00Z,28.4330,-82.6670,-0.083,1111122 
COMPS,ioos:station:USF.COMPS:ARP:1,2013-08-02T19:36:00Z,28.4330,-82.6670,-0.115,1111122 
COMPS,ioos:station:USF.COMPS:ARP:1,2013-08-02T19:42:00Z,28.4330,-82.6670,-0.131,1111122 
COMPS,ioos:station:USF.COMPS:ARP:1,2013-08-02T19:48:00Z,28.4330,-82.6670,-0.144,1111122 
COMPS,ioos:station:USF.COMPS:ARP:1,2013-08-02T19:54:00Z,28.4330,-82.6670,-0.158,1111122 
COMPS,ioos:station:USF.COMPS:ARP:1,2013-08-02T20:06:00Z,28.4330,-82.6670,-0.188,1111122 
COMPS,ioos:station:USF.COMPS:ARP:1,2013-08-02T20:12:00Z,28.4330,-82.6670,-0.203,1111122 
COMPS,ioos:station:USF.COMPS:ARP:1,2013-08-02T20:24:00Z,28.4330,-82.6670,-0.231,1111122 
COMPS,ioos:station:USF.COMPS:ARP:1,2013-08-02T20:36:00Z,28.4330,-82.6670,-0.253,1111122 
COMPS,ioos:station:USF.COMPS:ARP:1,2013-08-02T20:42:00Z,28.4330,-82.6670,-0.266,1111122 
COMPS,ioos:station:USF.COMPS:ARP:1,2013-08-02T20:54:00Z,28.4330,-82.6670,-0.29,1111122 
COMPS,ioos:station:USF.COMPS:ARP:1,2013-08-02T21:00:00Z,28.4330,-82.6670,-0.3,1111122 
COMPS,ioos:station:USF.COMPS:ARP:1,2013-08-02T21:06:00Z,28.4330,-82.6670,-0.31,1111122 
COMPS,ioos:station:USF.COMPS:ARP:1,2013-08-02T21:12:00Z,28.4330,-82.6670,-0.32,1111122 
COMPS,ioos:station:USF.COMPS:ARP:1,2013-08-02T21:36:00Z,28.4330,-82.6670,-0.357,1111122 
COMPS,ioos:station:USF.COMPS:ARP:1,2013-08-02T21:42:00Z,28.4330,-82.6670,-0.366,1111122 
COMPS,ioos:station:USF.COMPS:ARP:1,2013-08-02T21:48:00Z,28.4330,-82.6670,-0.374,1111122 
COMPS,ioos:station:USF.COMPS:ARP:1,2013-08-02T21:54:00Z,28.4330,-82.6670,-0.383,1111122 
COMPS,ioos:station:USF.COMPS:ARP:1,2013-08-02T22:24:00Z,28.4330,-82.6670,-0.419,1111122 
COMPS,ioos:station:USF.COMPS:ARP:1,2013-08-02T22:30:00Z,28.4330,-82.6670,-0.426,1111122 
COMPS,ioos:station:USF.COMPS:ARP:1,2013-08-02T22:36:00Z,28.4330,-82.6670,-0.433,1111122 
COMPS,ioos:station:USF.COMPS:ARP:1,2013-08-02T22:42:00Z,28.4330,-82.6670,-0.438,1111122 
COMPS,ioos:station:USF.COMPS:ARP:1,2013-08-02T22:48:00Z,28.4330,-82.6670,-0.445,1111122 
COMPS,ioos:station:USF.COMPS:ARP:1,2013-08-02T22:54:00Z,28.4330,-82.6670,-0.45,1111122 
COMPS,ioos:station:USF.COMPS:ARP:1,2013-08-02T23:06:00Z,28.4330,-82.6670,-0.459,1111122 
COMPS,ioos:station:USF.COMPS:ARP:1,2013-08-02T23:12:00Z,28.4330,-82.6670,-0.462,1111122 
COMPS,ioos:station:USF.COMPS:ARP:1,2013-08-03T04:06:00Z,28.4330,-82.6670,0.216,1111122 
COMPS,ioos:station:USF.COMPS:ARP:1,2013-08-03T04:48:00Z,28.4330,-82.6670,0.272,1111122 
COMPS,ioos:station:USF.COMPS:ARP:1,2013-08-03T05:06:00Z,28.4330,-82.6670,0.274,1111122 
COMPS,ioos:station:USF.COMPS:ARP:1,2013-08-03T05:24:00Z,28.4330,-82.6670,0.247,1111122 
COMPS,ioos:station:USF.COMPS:ARP:1,2013-08-03T05:30:00Z,28.4330,-82.6670,0.234,1111122 
COMPS,ioos:station:USF.COMPS:ARP:1,2013-08-03T07:06:00Z,28.4330,-82.6670,0.087,1111122 
COMPS,ioos:station:USF.COMPS:ARP:1,2013-08-03T07:30:00Z,28.4330,-82.6670,0.061,1111122 
COMPS,ioos:station:USF.COMPS:ARP:1,2013-08-03T07:36:00Z,28.4330,-82.6670,0.053,1111122 
COMPS,ioos:station:USF.COMPS:ARP:1,2013-08-03T07:42:00Z,28.4330,-82.6670,0.046,1111122 
COMPS,ioos:station:USF.COMPS:ARP:1,2013-08-03T07:48:00Z,28.4330,-82.6670,0.036,1111122 
COMPS,ioos:station:USF.COMPS:ARP:1,2013-08-03T08:24:00Z,28.4330,-82.6670,0.001,1111122 
COMPS,ioos:station:USF.COMPS:ARP:1,2013-08-03T08:30:00Z,28.4330,-82.6670,-0.007,1111122 
COMPS,ioos:station:USF.COMPS:ARP:1,2013-08-03T08:36:00Z,28.4330,-82.6670,-0.012,1111122 
COMPS,ioos:station:USF.COMPS:ARP:1,2013-08-03T08:42:00Z,28.4330,-82.6670,-0.021,1111122 
COMPS,ioos:station:USF.COMPS:ARP:1,2013-08-03T08:48:00Z,28.4330,-82.6670,-0.032,1111122 
COMPS,ioos:station:USF.COMPS:ARP:1,2013-08-03T09:00:00Z,28.4330,-82.6670,-0.051,1111122 
COMPS,ioos:station:USF.COMPS:ARP:1,2013-08-03T09:06:00Z,28.4330,-82.6670,-0.062,1111122 
COMPS,ioos:station:USF.COMPS:ARP:1,2013-08-03T09:12:00Z,28.4330,-82.6670,-0.069,1111122 
COMPS,ioos:station:USF.COMPS:ARP:1,2013-08-03T09:18:00Z,28.4330,-82.6670,-0.076,1111122 
COMPS,ioos:station:USF.COMPS:ARP:1,2013-08-03T09:24:00Z,28.4330,-82.6670,-0.082,1111122 
COMPS,ioos:station:USF.COMPS:ARP:1,2013-08-03T09:30:00Z,28.4330,-82.6670,-0.089,1111122 
COMPS,ioos:station:USF.COMPS:ARP:1,2013-08-03T09:36:00Z,28.4330,-82.6670,-0.09,1111122 
COMPS,ioos:station:USF.COMPS:ARP:1,2013-08-03T09:42:00Z,28.4330,-82.6670,-0.094,1111122 
COMPS,ioos:station:USF.COMPS:ARP:1,2013-08-03T09:48:00Z,28.4330,-82.6670,-0.095,1111122 
COMPS,ioos:station:USF.COMPS:ARP:1,2013-08-03T09:54:00Z,28.4330,-82.6670,-0.099,1111122 
COMPS,ioos:station:USF.COMPS:ARP:1,2013-08-03T10:00:00Z,28.4330,-82.6670,-0.096,1111122 
COMPS,ioos:station:USF.COMPS:ARP:1,2013-08-03T10:06:00Z,28.4330,-82.6670,-0.092,1111122 
COMPS,ioos:station:USF.COMPS:ARP:1,2013-08-03T10:12:00Z,28.4330,-82.6670,-0.091,1111122 
COMPS,ioos:station:USF.COMPS:ARP:1,2013-08-03T10:18:00Z,28.4330,-82.6670,-0.082,1111122 
COMPS,ioos:station:USF.COMPS:ARP:1,2013-08-03T10:24:00Z,28.4330,-82.6670,-0.079,1111122 
COMPS,ioos:station:USF.COMPS:ARP:1,2013-08-03T10:30:00Z,28.4330,-82.6670,-0.074,1111122 
COMPS,ioos:station:USF.COMPS:ARP:1,2013-08-03T10:36:00Z,28.4330,-82.6670,-0.074,1111122 
COMPS,ioos:station:USF.COMPS:ARP:1,2013-08-03T10:42:00Z,28.4330,-82.6670,-0.07,1111122 